Terminal Aerodrome Forecast
Issued by NWS Blacksburg, VA

Home | Current Version | Previous Version | Text Only | Print | Product List | Glossary On
Versions: 1 2 3 4 5 6 7 8 9 10 11 12 13 14 15 16 17 18 19 20 21 22 23 24 25 26 27 28 29 30 31 32 33 34 35 36 37 38 39 40 41 42 43 44 45 46 47 48
000
FTUS41 KRNK 020346 AAC
TAFLYH
TAF AMD
KLYH 020346Z 0204/0224 00000KT 4SM BR BKN028
     FM020500 00000KT 2SM BR OVC015
     FM020800 00000KT 1/2SM FG OVC004
     FM021500 00000KT P6SM OVC010
     FM021800 34003KT P6SM SCT035=

USA.gov is the U.S. government's official web portal to all federal, state and local government web resources and services.